Location: *
(53.4003°S, 165.3236°W)
Time: 01:35:43
(UTC+00:00)

Resurs 1-4 Rocket - Pass Details

Date: 11 December 2023
Orbit: 799 x 813 km, 98.7° (Epoch: 24 February)

Event Time Altitude Azimuth Distance (km) Brightness Sun altitude
Exits shadow 12:27:41 15° 342° (NNW) 2,085 3.6 -11.0°
Maximum altitude 12:31:47 40° 277° (W) 1,182 2.8 -10.7°
Drops below altitude 10° 12:36:48 10° 207° (SSW) 2,415 5.1 -10.4°
Sets 12:39:19 0° 200° (SSW) 3,353 6.1 -10.3°
